Location: Unspecified
(0.0000°N, 0.0000°E)
Time: 18:05:11
(UTC+00:00)

STARLINK 1037 - Pass Details

Date: 20 January 2020
Orbit: 467 x 469 km, 53.0° (Epoch: 23 January)

Event Time Altitude Azimuth Distance (km) Brightness Sun altitude
Exits shadow 03:04:19 -5° 78° (ENE) 3,067 8.0 -43.0°
Enters shadow 04:18:56 -30° 216° (SW) 7,217 9.3 -26.1°
Drops below altitude 10° 04:40:28 10° 28° (NNE) 1,610 6.1 -21.1°
Sets 04:42:36 0° 31° (NNE) 2,481 7.1 -20.6°
